• In Österreich
  • Länderverzeichnis
  • Für 7 Tage
  • Wassertemperatur
  • Satellitenkarten
  • Wetterkarte
  • News
  • Widgets
  • user-avatar
    Anmelden

    Stündliche Wetter Sarajevo

    Heute, 19 Juni, Dienstag

    Zeit Temperatur Niederschläge Wind Luftdruck Luftfeuchtigkeit
    00:00 +14°C° 0 mm 2 m/S 688 mmHg 93%
    01:00 +14°C° 0 mm 2 m/S 688 mmHg 93%
    02:00 +14°C° 0 mm 2 m/S 688 mmHg 93%
    03:00 +14°C° 0 mm 2 m/S 689 mmHg 93%
    04:00 +14°C° 0 mm 2 m/S 689 mmHg 93%
    05:00 +15°C° 0 mm 2 m/S 689 mmHg 91%
    06:00 +16°C° 0 mm 3 m/S 689 mmHg 88%
    07:00 +17°C° 0 mm 3 m/S 690 mmHg 86%
    08:00 +18°C° 0,1 mm 3 m/S 690 mmHg 82%
    09:00 +20°C° 0,1 mm 3 m/S 691 mmHg 78%
    10:00 +21°C° 0,1 mm 3 m/S 691 mmHg 74%
    11:00 +21°C° 0,2 mm 3 m/S 691 mmHg 72%
    12:00 +22°C° 0,2 mm 3 m/S 691 mmHg 71%
    13:00 +22°C° 0,2 mm 3 m/S 691 mmHg 69%
    14:00 +22°C° 0,4 mm 3 m/S 691 mmHg 72%
    15:00 +22°C° 0,4 mm 3 m/S 691 mmHg 75%
    16:00 +21°C° 0,4 mm 3 m/S 690 mmHg 78%
    17:00 +20°C° 0,2 mm 3 m/S 690 mmHg 82%
    18:00 +19°C° 0,2 mm 2 m/S 690 mmHg 86%
    19:00 +18°C° 0,2 mm 2 m/S 690 mmHg 89%
    20:00 +17°C° 0 mm 2 m/S 690 mmHg 91%
    21:00 +17°C° 0 mm 2 m/S 690 mmHg 92%
    22:00 +16°C° 0 mm 2 m/S 691 mmHg 94%
    23:00 +16°C° 0 mm 2 m/S 691 mmHg 94%

    Morgen, 20 Juni, Mittwoch

    Zeit Temperatur Niederschläge Wind Luftdruck Luftfeuchtigkeit
    00:00 +15°C° 0 mm 2 m/S 691 mmHg 95%
    01:00 +15°C° 0 mm 2 m/S 691 mmHg 95%
    02:00 +15°C° 0 mm 2 m/S 691 mmHg 95%
    03:00 +15°C° 0 mm 2 m/S 691 mmHg 95%
    04:00 +15°C° 0 mm 2 m/S 691 mmHg 95%
    05:00 +16°C° 0 mm 2 m/S 691 mmHg 92%
    06:00 +17°C° 0 mm 2 m/S 691 mmHg 89%
    07:00 +18°C° 0 mm 2 m/S 692 mmHg 86%
    08:00 +20°C° 0 mm 2 m/S 692 mmHg 78%
    09:00 +23°C° 0 mm 2 m/S 693 mmHg 69%
    10:00 +24°C° 0 mm 2 m/S 693 mmHg 60%
    11:00 +25°C° 0 mm 2 m/S 693 mmHg 57%
    12:00 +26°C° 0 mm 2 m/S 693 mmHg 53%
    13:00 +27°C° 0 mm 2 m/S 693 mmHg 50%
    14:00 +27°C° 0,2 mm 2 m/S 693 mmHg 54%
    15:00 +26°C° 0,2 mm 2 m/S 692 mmHg 58%
    16:00 +26°C° 0,2 mm 2 m/S 692 mmHg 63%
    17:00 +24°C° 0,5 mm 2 m/S 692 mmHg 70%
    18:00 +23°C° 0,5 mm 1 m/S 691 mmHg 77%
    19:00 +21°C° 0,5 mm 1 m/S 691 mmHg 84%
    20:00 +20°C° 0,1 mm 1 m/S 691 mmHg 86%
    21:00 +19°C° 0,1 mm 1 m/S 691 mmHg 88%
    22:00 +18°C° 0,1 mm 1 m/S 691 mmHg 90%
    23:00 +16°C° 0 mm 1 m/S 691 mmHg 90%

    übermorgen, 21 Juni, Donnerstag

    Zeit Temperatur Niederschläge Wind Luftdruck Luftfeuchtigkeit
    00:00 +16°C° 0 mm 1 m/S 691 mmHg 90%
    01:00 +15°C° 0 mm 1 m/S 691 mmHg 90%
    02:00 +15°C° 0 mm 1 m/S 690 mmHg 90%
    03:00 +15°C° 0 mm 1 m/S 690 mmHg 90%
    04:00 +15°C° 0 mm 1 m/S 690 mmHg 90%
    05:00 +16°C° 0 mm 1 m/S 690 mmHg 86%
    06:00 +19°C° 0 mm 1 m/S 690 mmHg 83%
    07:00 +21°C° 0 mm 1 m/S 691 mmHg 79%
    08:00 +23°C° 0 mm 1 m/S 691 mmHg 71%
    09:00 +24°C° 0 mm 1 m/S 691 mmHg 63%
    10:00 +26°C° 0 mm 1 m/S 691 mmHg 55%
    11:00 +27°C° 0,2 mm 1 m/S 691 mmHg 55%
    12:00 +27°C° 0,2 mm 1 m/S 691 mmHg 54%
    13:00 +28°C° 0,2 mm 1 m/S 690 mmHg 53%
    14:00 +27°C° 0,4 mm 1 m/S 690 mmHg 55%
    15:00 +27°C° 0,4 mm 1 m/S 690 mmHg 58%
    16:00 +26°C° 0,4 mm 2 m/S 689 mmHg 60%
    17:00 +24°C° 0,4 mm 1 m/S 689 mmHg 68%
    18:00 +23°C° 0,4 mm 1 m/S 688 mmHg 76%
    19:00 +21°C° 0,4 mm 1 m/S 688 mmHg 84%
    20:00 +20°C° 0,2 mm 1 m/S 688 mmHg 86%
    21:00 +19°C° 0,2 mm 1 m/S 688 mmHg 89%
    22:00 +18°C° 0,2 mm 1 m/S 688 mmHg 92%
    23:00 +18°C° 0 mm 1 m/S 688 mmHg 92%

    22 Juni, Freitag

    Zeit Temperatur Niederschläge Wind Luftdruck Luftfeuchtigkeit
    00:00 +16°C° 0 mm 1 m/S 687 mmHg 92%
    01:00 +16°C° 0 mm 1 m/S 687 mmHg 93%
    02:00 +15°C° 0 mm 1 m/S 687 mmHg 93%
    03:00 +15°C° 0 mm 1 m/S 687 mmHg 93%
    04:00 +15°C° 0 mm 1 m/S 687 mmHg 93%
    05:00 +18°C° 0 mm 1 m/S 687 mmHg 88%
    06:00 +19°C° 0 mm 1 m/S 687 mmHg 84%
    07:00 +21°C° 0 mm 1 m/S 688 mmHg 80%
    08:00 +23°C° 0,1 mm 1 m/S 688 mmHg 73%
    09:00 +24°C° 0,1 mm 1 m/S 688 mmHg 67%
    10:00 +26°C° 0,1 mm 1 m/S 689 mmHg 61%
    11:00 +25°C° 0,6 mm 2 m/S 689 mmHg 65%
    12:00 +25°C° 0,6 mm 2 m/S 688 mmHg 70%
    13:00 +24°C° 0,6 mm 3 m/S 688 mmHg 75%
    14:00 +21°C° 1,2 mm 3 m/S 688 mmHg 79%
    15:00 +20°C° 1,2 mm 3 m/S 688 mmHg 83%
    16:00 +18°C° 1,2 mm 2 m/S 688 mmHg 87%
    17:00 +16°C° 0,4 mm 3 m/S 688 mmHg 88%
    18:00 +13°C° 0,4 mm 3 m/S 688 mmHg 89%
    19:00 +12°C° 0,4 mm 3 m/S 689 mmHg 90%
    20:00 +11°C° 0 mm 3 m/S 689 mmHg 90%
    21:00 +10°C° 0 mm 3 m/S 689 mmHg 89%
    22:00 +8°C° 0 mm 3 m/S 689 mmHg 89%
    23:00 +8°C° 0 mm 2 m/S 689 mmHg 87%

    23 Juni, Samstag

    Zeit Temperatur Niederschläge Wind Luftdruck Luftfeuchtigkeit
    00:00 +8°C° 0 mm 2 m/S 689 mmHg 86%
    01:00 +8°C° 0 mm 2 m/S 688 mmHg 84%
    02:00 +8°C° 0,8 mm 2 m/S 688 mmHg 86%
    03:00 +8°C° 0,8 mm 2 m/S 688 mmHg 88%
    04:00 +8°C° 0,8 mm 2 m/S 688 mmHg 90%
    05:00 +8°C° 1,2 mm 2 m/S 689 mmHg 91%
    06:00 +8°C° 1,2 mm 2 m/S 689 mmHg 92%
    07:00 +8°C° 1,2 mm 2 m/S 689 mmHg 93%
    08:00 +9°C° 0,4 mm 2 m/S 689 mmHg 89%
    09:00 +10°C° 0,4 mm 2 m/S 689 mmHg 86%
    10:00 +12°C° 0,4 mm 2 m/S 690 mmHg 83%
    11:00 +13°C° 0,1 mm 2 m/S 690 mmHg 78%
    12:00 +14°C° 0,1 mm 2 m/S 690 mmHg 74%
    13:00 +15°C° 0,1 mm 2 m/S 690 mmHg 69%
    14:00 +16°C° 0 mm 2 m/S 690 mmHg 67%
    15:00 +16°C° 0 mm 2 m/S 690 mmHg 65%
    16:00 +17°C° 0 mm 2 m/S 690 mmHg 63%
    17:00 +16°C° 0 mm 2 m/S 690 mmHg 68%
    18:00 +15°C° 0 mm 2 m/S 689 mmHg 72%
    19:00 +14°C° 0 mm 2 m/S 689 mmHg 76%
    20:00 +12°C° 0 mm 2 m/S 689 mmHg 79%
    21:00 +10°C° 0 mm 2 m/S 689 mmHg 82%
    22:00 +9°C° 0 mm 2 m/S 689 mmHg 86%
    23:00 +8°C° 0 mm 2 m/S 689 mmHg 86%

    24 Juni, Sonntag

    Zeit Temperatur Niederschläge Wind Luftdruck Luftfeuchtigkeit
    00:00 +8°C° 0 mm 2 m/S 689 mmHg 86%
    01:00 +8°C° 0 mm 2 m/S 689 mmHg 86%
    02:00 +8°C° 0 mm 2 m/S 689 mmHg 86%
    03:00 +8°C° 0 mm 2 m/S 689 mmHg 86%
    04:00 +7°C° 0 mm 2 m/S 689 mmHg 85%
    05:00 +9°C° 0 mm 2 m/S 689 mmHg 81%
    06:00 +12°C° 0 mm 2 m/S 690 mmHg 77%
    07:00 +13°C° 0 mm 2 m/S 690 mmHg 72%
    08:00 +15°C° 0 mm 2 m/S 690 mmHg 68%
    09:00 +16°C° 0 mm 2 m/S 690 mmHg 64%
    10:00 +18°C° 0 mm 2 m/S 691 mmHg 60%
    11:00 +18°C° 0 mm 2 m/S 690 mmHg 60%
    12:00 +18°C° 0 mm 2 m/S 690 mmHg 60%
    13:00 +19°C° 0 mm 2 m/S 690 mmHg 59%
    14:00 +19°C° 0 mm 2 m/S 690 mmHg 60%
    15:00 +19°C° 0 mm 2 m/S 690 mmHg 60%
    16:00 +19°C° 0 mm 2 m/S 690 mmHg 61%
    17:00 +18°C° 0 mm 2 m/S 690 mmHg 67%
    18:00 +16°C° 0 mm 2 m/S 689 mmHg 74%
    19:00 +15°C° 0 mm 2 m/S 689 mmHg 80%
    20:00 +14°C° 0 mm 2 m/S 689 mmHg 83%
    21:00 +12°C° 0 mm 2 m/S 689 mmHg 87%
    22:00 +10°C° 0 mm 2 m/S 689 mmHg 90%
    23:00 +10°C° 0 mm 2 m/S 689 mmHg 91%
    Mehr zeigen